• In Hungary
  • List of Countries
  • For 7 days
  • Water Temperature
  • Satellite Maps
  • Weather Map
  • News
  • Weather Widgets
  • user-avatar
    Login

    Hourly Weather Trotwood

    Today, 20 September, Thursday

    Time Temperature Precipitation Wind Pressure Humidity
    00:00 +23°C° 0 mm 2 mps 739 mmHg 91%
    01:00 +23°C° 0.1 mm 2 mps 739 mmHg 92%
    02:00 +23°C° 0.1 mm 2 mps 739 mmHg 92%
    03:00 +23°C° 0.1 mm 2 mps 739 mmHg 92%
    04:00 +23°C° 0.5 mm 2 mps 739 mmHg 93%
    05:00 +23°C° 0.5 mm 2 mps 739 mmHg 93%
    06:00 +23°C° 0 mm 2 mps 740 mmHg 93%
    07:00 +24°C° 0.5 mm 2 mps 740 mmHg 90%
    08:00 +26°C° 0.5 mm 3 mps 740 mmHg 88%
    09:00 +27°C° 0.5 mm 3 mps 740 mmHg 85%
    10:00 +28°C° 0.6 mm 3 mps 740 mmHg 79%
    11:00 +30°C° 0.6 mm 4 mps 739 mmHg 73%
    12:00 +32°C° 0.6 mm 4 mps 739 mmHg 67%
    13:00 +31°C° 0.6 mm 3 mps 739 mmHg 69%
    14:00 +31°C° 0.6 mm 3 mps 739 mmHg 72%
    15:00 +31°C° 0.6 mm 3 mps 739 mmHg 74%
    16:00 +29°C° 0.1 mm 3 mps 739 mmHg 78%
    17:00 +28°C° 0.1 mm 2 mps 738 mmHg 82%
    18:00 +26°C° 0.1 mm 2 mps 738 mmHg 86%
    19:00 +26°C° 0 mm 2 mps 738 mmHg 87%
    20:00 +25°C° 0 mm 3 mps 738 mmHg 89%
    21:00 +25°C° 0 mm 3 mps 738 mmHg 90%
    22:00 +25°C° 0 mm 3 mps 738 mmHg 90%
    23:00 +24°C° 0 mm 3 mps 738 mmHg 90%

    Tomorrow, 21 September, Friday

    Time Temperature Precipitation Wind Pressure Humidity
    00:00 +24°C° 0 mm 3 mps 738 mmHg 91%
    01:00 +24°C° 0 mm 3 mps 738 mmHg 91%
    02:00 +23°C° 0 mm 4 mps 738 mmHg 91%
    03:00 +23°C° 0 mm 4 mps 738 mmHg 91%
    04:00 +23°C° 0 mm 4 mps 738 mmHg 90%
    05:00 +23°C° 0 mm 4 mps 738 mmHg 90%
    06:00 +23°C° 0 mm 4 mps 738 mmHg 90%
    07:00 +25°C° 0.1 mm 5 mps 738 mmHg 85%
    08:00 +27°C° 0.1 mm 6 mps 738 mmHg 80%
    09:00 +28°C° 0.1 mm 7 mps 738 mmHg 75%
    10:00 +29°C° 0.3 mm 7 mps 738 mmHg 72%
    11:00 +30°C° 0.3 mm 7 mps 738 mmHg 70%
    12:00 +31°C° 0.3 mm 8 mps 738 mmHg 67%
    13:00 +30°C° 0.5 mm 7 mps 738 mmHg 71%
    14:00 +29°C° 0.5 mm 6 mps 737 mmHg 74%
    15:00 +29°C° 0.5 mm 6 mps 737 mmHg 78%
    16:00 +27°C° 0.4 mm 5 mps 738 mmHg 81%
    17:00 +26°C° 0.4 mm 4 mps 738 mmHg 85%
    18:00 +23°C° 0.4 mm 4 mps 739 mmHg 89%
    19:00 +22°C° 0 mm 4 mps 739 mmHg 88%
    20:00 +20°C° 0 mm 4 mps 740 mmHg 87%
    21:00 +19°C° 0 mm 5 mps 741 mmHg 86%
    22:00 +18°C° 0 mm 4 mps 741 mmHg 86%
    23:00 +15°C° 0 mm 4 mps 741 mmHg 85%

    Day after tomorrow, 22 September, Saturday

    Time Temperature Precipitation Wind Pressure Humidity
    00:00 +14°C° 0 mm 4 mps 741 mmHg 84%
    01:00 +14°C° 0 mm 3 mps 742 mmHg 84%
    02:00 +14°C° 0 mm 3 mps 742 mmHg 84%
    03:00 +13°C° 0 mm 3 mps 742 mmHg 84%
    04:00 +13°C° 0 mm 3 mps 742 mmHg 84%
    05:00 +13°C° 0 mm 3 mps 742 mmHg 84%
    06:00 +13°C° 0 mm 3 mps 743 mmHg 84%
    07:00 +13°C° 0 mm 3 mps 743 mmHg 83%
    08:00 +14°C° 0 mm 3 mps 743 mmHg 83%
    09:00 +14°C° 0 mm 3 mps 744 mmHg 82%
    10:00 +14°C° 0.1 mm 3 mps 744 mmHg 83%
    11:00 +16°C° 0.1 mm 3 mps 743 mmHg 83%
    12:00 +16°C° 0.1 mm 3 mps 743 mmHg 83%
    13:00 +17°C° 0 mm 3 mps 743 mmHg 83%
    14:00 +17°C° 0 mm 3 mps 742 mmHg 83%
    15:00 +17°C° 0 mm 2 mps 742 mmHg 83%
    16:00 +17°C° 0 mm 2 mps 742 mmHg 85%
    17:00 +16°C° 0 mm 2 mps 742 mmHg 88%
    18:00 +15°C° 0 mm 2 mps 742 mmHg 91%
    19:00 +15°C° 0 mm 2 mps 742 mmHg 92%
    20:00 +14°C° 0 mm 2 mps 742 mmHg 93%
    21:00 +14°C° 0 mm 2 mps 743 mmHg 94%
    22:00 +14°C° 0 mm 2 mps 742 mmHg 95%
    23:00 +13°C° 0 mm 2 mps 742 mmHg 95%

    23 September, Sunday

    Time Temperature Precipitation Wind Pressure Humidity
    00:00 +13°C° 0 mm 2 mps 742 mmHg 95%
    01:00 +13°C° 0 mm 2 mps 742 mmHg 95%
    02:00 +12°C° 0 mm 2 mps 742 mmHg 96%
    03:00 +11°C° 0 mm 3 mps 742 mmHg 96%
    04:00 +11°C° 0 mm 3 mps 742 mmHg 96%
    05:00 +11°C° 0 mm 3 mps 742 mmHg 95%
    06:00 +10°C° 0 mm 3 mps 742 mmHg 95%
    07:00 +12°C° 0 mm 3 mps 743 mmHg 89%
    08:00 +14°C° 0 mm 4 mps 743 mmHg 82%
    09:00 +18°C° 0 mm 4 mps 743 mmHg 75%
    10:00 +19°C° 0 mm 4 mps 743 mmHg 72%
    11:00 +20°C° 0 mm 4 mps 743 mmHg 69%
    12:00 +21°C° 0 mm 4 mps 742 mmHg 65%
    13:00 +22°C° 0 mm 4 mps 742 mmHg 65%
    14:00 +22°C° 0 mm 4 mps 742 mmHg 66%
    15:00 +22°C° 0 mm 4 mps 741 mmHg 66%
    16:00 +21°C° 0 mm 3 mps 741 mmHg 72%
    17:00 +19°C° 0 mm 3 mps 741 mmHg 79%
    18:00 +17°C° 0 mm 3 mps 741 mmHg 85%
    19:00 +17°C° 0 mm 3 mps 742 mmHg 87%
    20:00 +16°C° 0 mm 3 mps 742 mmHg 89%
    21:00 +14°C° 0 mm 3 mps 742 mmHg 91%
    22:00 +14°C° 0 mm 3 mps 742 mmHg 91%
    23:00 +14°C° 0 mm 3 mps 742 mmHg 92%

    24 September, Monday

    Time Temperature Precipitation Wind Pressure Humidity
    00:00 +14°C° 0 mm 3 mps 742 mmHg 93%
    01:00 +14°C° 0 mm 3 mps 742 mmHg 94%
    02:00 +14°C° 0 mm 3 mps 742 mmHg 95%
    03:00 +15°C° 0 mm 2 mps 742 mmHg 96%
    04:00 +16°C° 0 mm 3 mps 742 mmHg 97%
    05:00 +16°C° 0 mm 3 mps 742 mmHg 97%
    06:00 +16°C° 0 mm 3 mps 742 mmHg 97%
    07:00 +17°C° 0 mm 3 mps 742 mmHg 95%
    08:00 +19°C° 0 mm 3 mps 742 mmHg 92%
    09:00 +20°C° 0 mm 3 mps 742 mmHg 90%
    10:00 +21°C° 0.1 mm 3 mps 742 mmHg 87%
    11:00 +22°C° 0.1 mm 3 mps 742 mmHg 84%
    12:00 +25°C° 0.1 mm 3 mps 742 mmHg 82%
    13:00 +25°C° 1.1 mm 4 mps 741 mmHg 82%
    14:00 +25°C° 1.1 mm 4 mps 741 mmHg 83%
    15:00 +25°C° 1.1 mm 5 mps 740 mmHg 84%
    16:00 +23°C° 0.4 mm 4 mps 740 mmHg 87%
    17:00 +22°C° 0.4 mm 4 mps 741 mmHg 89%
    18:00 +21°C° 0.4 mm 4 mps 741 mmHg 92%
    19:00 +21°C° 0 mm 4 mps 741 mmHg 93%
    20:00 +21°C° 0 mm 4 mps 741 mmHg 93%
    21:00 +20°C° 0 mm 5 mps 741 mmHg 94%
    22:00 +20°C° 0 mm 4 mps 741 mmHg 94%
    23:00 +20°C° 0 mm 4 mps 741 mmHg 94%

    25 September, Tuesday

    Time Temperature Precipitation Wind Pressure Humidity
    00:00 +20°C° 0 mm 4 mps 741 mmHg 95%
    01:00 +19°C° 0 mm 4 mps 740 mmHg 95%
    02:00 +19°C° 0 mm 4 mps 740 mmHg 95%
    03:00 +19°C° 0 mm 4 mps 740 mmHg 95%
    04:00 +19°C° 0.3 mm 4 mps 740 mmHg 95%
    05:00 +19°C° 0.3 mm 5 mps 740 mmHg 95%
    06:00 +19°C° 0.3 mm 5 mps 740 mmHg 95%
    07:00 +20°C° 0.3 mm 5 mps 740 mmHg 93%
    08:00 +21°C° 0.3 mm 6 mps 740 mmHg 91%
    09:00 +22°C° 0.3 mm 6 mps 740 mmHg 90%
    10:00 +22°C° 0 mm 6 mps 739 mmHg 89%
    11:00 +23°C° 0 mm 6 mps 739 mmHg 88%
    12:00 +23°C° 0 mm 6 mps 739 mmHg 87%
    13:00 +24°C° 0.1 mm 6 mps 738 mmHg 87%
    14:00 +25°C° 0.1 mm 5 mps 737 mmHg 86%
    15:00 +26°C° 0.1 mm 5 mps 736 mmHg 85%
    16:00 +25°C° 2.9 mm 5 mps 736 mmHg 88%
    17:00 +23°C° 2.9 mm 5 mps 736 mmHg 91%
    18:00 +22°C° 2.9 mm 5 mps 736 mmHg 93%
    19:00 +22°C° 3.9 mm 4 mps 736 mmHg 94%
    20:00 +22°C° 3.9 mm 3 mps 736 mmHg 96%
    21:00 +21°C° 3.9 mm 3 mps 737 mmHg 97%
    22:00 +20°C° 2.5 mm 4 mps 736 mmHg 96%
    23:00 +19°C° 2.5 mm 4 mps 736 mmHg 96%
    Show more